[[{"header":{"parameterUnit":"m.s-1","parameterCategory":1,"la1":30.2992,"la2":30.254,"lo1":-89.0895,"lo2":-89.0443,"dy":0.0025,"dx":0.0025,"nx":19,"ny":19,"refTime":"2026-05-16T09:00:00:Z","depth":0,"parameterNumber":2,"parameterNumberName":"U-component_of_WINDS"},"data":[0,0,0,-5.0459,-5.0461,-5.0559,-5.0559,-5.0692,-5.0693,0,0,0,0,0,0,0,0,0,0,0,-5.0435,-5.0436,-5.0459,-5.0461,-5.0559,-5.0559,-5.0692,-5.0693,0,0,0,0,0,0,0,0,0,0,0,-5.0434,-5.0435,-5.0437,-5.0462,-5.0559,-5.0559,-5.0692,-5.0615,0,0,0,0,0,0,0,0,0,0,-5.0519,-5.0501,-5.0435,-5.0437,-5.0462,-5.0559,-5.0559,-5.0611,-5.062,-5.0651,0,-5.0681,0,-5.0689,-5.0703,-5.0703,0,0,0,-5.0457,-5.0494,-5.0516,-5.0437,-5.0463,-5.0559,-5.0514,-5.0616,-5.0626,-5.0663,-5.0682,-5.0687,-5.0692,-5.0704,-5.0704,-5.0899,-5.09,0,0,-5.0452,-5.0454,-5.0509,-5.0522,-5.0508,-5.0511,-5.0517,-5.0622,-5.0643,-5.0683,-5.069,-5.0694,-5.0705,-5.0706,-5.0898,-5.09,0,0,0,-5.0439,-5.0451,-5.047,-5.0517,-5.0534,-5.0514,-5.0521,-5.0638,-5.0645,-5.0691,-5.0695,-5.0705,-5.0707,-5.0897,-5.0899,-5.0953,0,0,0,-5.0436,-5.0443,-5.0468,-5.0471,-5.0533,-5.0588,-5.0535,-5.0637,-5.0649,-5.0695,-5.0706,-5.0709,-5.0896,-5.0898,-5.0949,-5.0977,0,0,0,-5.0426,-5.0442,-5.0458,-5.047,-5.0513,-5.0586,-5.0598,-5.064,-5.0652,-5.0703,-5.0709,-5.0895,-5.0898,-5.0946,-5.0971,-5.1028,0,0,0,-5.0417,-5.0505,-5.0459,-5.0559,-5.0512,-5.062,-5.0597,-5.0677,-5.0729,-5.0706,-5.0896,-5.0899,-5.0944,-5.0968,-5.1024,-5.1074,-5.1096,0,0,-5.0529,-5.0518,-5.0577,-5.0539,-5.0655,-5.0605,-5.073,-5.0774,-5.0777,-5.0858,-5.0863,-5.0951,-5.0971,-5.1027,-5.1222,-5.124,0,0,0,-5.0613,-5.0655,-5.0686,-5.0735,-5.0772,-5.0806,-5.0831,-5.0848,-5.0918,-5.0819,-5.0988,-5.1,-5.1033,-5.1056,-5.1071,-5.1098,-5.0911,-5.091,-5.091,-5.0772,-5.0772,-5.0869,-5.0882,-5.0931,-5.0957,-5.0996,-5.1023,-5.1009,-5.1049,-5.1072,-5.119,-5.1218,-5.1229,-5.1258,-5.1101,-5.1101,-5.1101,-5.1102,-5.0934,-5.0992,-5.0974,-5.106,-5.106,-5.1133,-5.1164,-5.1152,-5.1219,-5.1173,-5.1202,-5.1147,-5.1248,-5.1273,-5.1106,-5.1105,-5.1104,-5.1104,-5.1104,-5.1035,-5.1063,-5.1083,-5.1155,-5.1212,-5.1223,-5.1289,-5.1287,-5.1286,-5.1315,-5.1338,-5.1338,-5.1334,-5.1327,-5.1328,-5.1328,-5.1329,-5.1329,-5.1329,-5.113,-5.1152,-5.1207,-5.1257,-5.1289,-5.1331,-5.1361,-5.1393,-5.1427,-5.1421,-5.1421,-5.1402,-5.1259,-5.1221,-5.1335,-5.1334,-5.1334,-5.1333,-5.1332,-5.1288,-5.1253,-5.1339,-5.1371,-5.1429,-5.1485,-5.1484,-5.1549,-5.1575,-5.1608,-5.1585,-5.148,-5.1469,-5.1457,-5.1425,-5.1585,-5.1585,-5.1585,-5.1585,-5.1371,-5.1366,-5.1454,-5.1506,-5.1558,-5.1566,-5.1664,-5.169,-5.171,-5.1727,-5.1705,-5.1664,-5.1653,-5.1648,-5.1632,-5.1602,-5.1804,-5.1804,-5.1804,-5.1467,-5.1468,-5.155,-5.1571,-5.1617,-5.1656,-5.1748,-5.1809,-5.1825,-5.1813,-5.1739,-5.173,-5.1665,-5.1644,-5.1625,-5.1601,-5.1546,0,0]},{"header":{"parameterUnit":"m.s-1","parameterCategory":1,"la1":30.2992,"la2":30.254,"lo1":-89.0895,"lo2":-89.0443,"dy":0.0025,"dx":0.0025,"nx":19,"ny":19,"refTime":"2026-05-16T09:00:00:Z","depth":0,"parameterNumber":3,"parameterNumberName":"V-component_of_WINDS"},"data":[0,0,0,5.1345,5.1345,5.1356,5.1356,5.1367,5.1367,0,0,0,0,0,0,0,0,0,0,0,5.1342,5.1342,5.1345,5.1345,5.1356,5.1356,5.1367,5.1367,0,0,0,0,0,0,0,0,0,0,0,5.1341,5.1342,5.1342,5.1345,5.1356,5.1356,5.1367,5.136,0,0,0,0,0,0,0,0,0,0,5.135,5.1346,5.1342,5.1342,5.1346,5.1356,5.1356,5.1359,5.136,5.1362,0,5.1364,0,5.1366,5.1368,5.1368,0,0,0,5.1345,5.1345,5.1349,5.1342,5.1346,5.1356,5.1351,5.136,5.1361,5.1363,5.1364,5.1364,5.1366,5.1368,5.1368,5.138,5.138,0,0,5.1345,5.1343,5.1348,5.135,5.1349,5.1351,5.1351,5.136,5.1361,5.1364,5.1365,5.1366,5.1368,5.1368,5.138,5.138,0,0,0,5.1343,5.1342,5.1346,5.1349,5.1351,5.1351,5.1352,5.1361,5.1362,5.1365,5.1366,5.1368,5.1368,5.138,5.138,5.1382,0,0,0,5.1343,5.1341,5.1345,5.1344,5.1351,5.1356,5.1352,5.1361,5.1362,5.1366,5.1368,5.1368,5.138,5.138,5.1382,5.1383,0,0,0,5.1341,5.1341,5.1343,5.1344,5.1349,5.1356,5.1358,5.1362,5.1363,5.1368,5.1368,5.138,5.138,5.1382,5.1382,5.1386,0,0,0,5.1338,5.1342,5.1343,5.1348,5.1349,5.1358,5.1358,5.1364,5.1368,5.1368,5.138,5.138,5.1382,5.1382,5.1386,5.1389,5.139,0,0,5.1342,5.1343,5.1347,5.1347,5.1356,5.1356,5.1365,5.1369,5.1371,5.1377,5.1377,5.1382,5.1382,5.1386,5.1396,5.1397,0,0,0,5.1347,5.135,5.1353,5.1357,5.1363,5.1367,5.1371,5.1373,5.1379,5.1374,5.1384,5.1385,5.1387,5.1388,5.1389,5.1391,5.1381,5.1381,5.1381,5.1349,5.1353,5.136,5.1365,5.137,5.1375,5.1379,5.1383,5.1383,5.1386,5.1388,5.1394,5.1395,5.1396,5.1398,5.139,5.139,5.139,5.139,5.1356,5.1361,5.1364,5.1372,5.1376,5.1382,5.1388,5.1388,5.1394,5.1392,5.1394,5.1392,5.1397,5.1399,5.139,5.139,5.139,5.139,5.139,5.1358,5.1361,5.1365,5.1374,5.138,5.1385,5.1391,5.1394,5.1396,5.1399,5.1401,5.1401,5.1401,5.14,5.14,5.14,5.14,5.14,5.14,5.1358,5.1363,5.1368,5.1376,5.138,5.1387,5.1394,5.1398,5.1403,5.1404,5.1404,5.1405,5.1397,5.1395,5.14,5.14,5.14,5.14,5.14,5.1363,5.1363,5.1372,5.1376,5.1387,5.1393,5.1398,5.1406,5.141,5.1413,5.1414,5.1408,5.1408,5.1407,5.1405,5.1413,5.1413,5.1413,5.1413,5.1364,5.1366,5.1376,5.1384,5.1391,5.1397,5.1407,5.1413,5.1419,5.1421,5.1421,5.1419,5.1418,5.1419,5.1418,5.1416,5.1427,5.1427,5.1427,5.1368,5.1371,5.1378,5.1386,5.1395,5.1402,5.1411,5.1419,5.1426,5.1427,5.1424,5.1423,5.142,5.1419,5.1419,5.1418,5.1415,0,0]}]]